This demonstration page uses our WeatherBlox Daily Observations layout. Learn more.

Left ArrowRight Arrow

34.16533, -84.80231

Hourly Observations for October 2, 2019

Temp ( °F °C ) Dew Point ( °F °C ) Humidity (%) Winds ( mph kmh ) Pressure ( in mb ) Visibility ( mi km ) Precip ( " mm )
12:53 am 00:53 Clear 75 23.9 69 20.6 82 82 Calm 30.01 1016 10 16 0.00 0.00
1:53 am 01:53 Clear 74 23.3 69 20.6 85 85 Calm 30.01 1016 10 16 0.00 0.00
2:53 am 02:53 Clear 73 22.8 69 20.6 87 87 Calm 30.01 1016 10 16 0.00 0.00
3:53 am 03:53 Clear 73 22.8 69 20.6 87 87 Calm 30.00 1016 9 14 0.00 0.00
4:53 am 04:53 Clear 72 22.2 69 20.6 91 91 Calm 30.00 1016 8 13 0.00 0.00
5:53 am 05:53 Clear 72 22.2 69 20.6 91 91 Calm 30.01 1016 8 13 0.00 0.00
6:53 am 06:53 Clear 70 21.1 68 20 93 93 Calm 30.03 1017 7 11 0.00 0.00
7:53 am 07:53 Sunny with Mist and Fog 70 21.1 68 20 93 93 Calm 30.05 1018 4 6 0.00 0.00
8:53 am 08:53 Sunny 76 24.4 70 21.1 82 82 Calm 30.06 1018 7 11 0.00 0.00
9:53 am 09:53 Sunny 82 27.8 68 20 63 63 VRB 5 7 30.06 1018 10 16 0.00 0.00
10:53 am 10:53 Sunny 87 30.6 69 20.6 55 55 Calm 30.06 1018 10 16 0.00 0.00
11:53 am 11:53 Sunny 90 32.2 68 20 48 48 NNE 6 9 30.05 1018 10 16 0.00 0.00
12:53 pm 12:53 Sunny 93 33.9 68 20 44 44 VRB 5 7 30.03 1017 10 16 0.00 0.00
1:53 pm 13:53 Sunny 96 35.6 67 19.4 39 39 VRB 5 7 29.99 1016 10 16 0.00 0.00
2:53 pm 14:53 Partly Cloudy 96 35.6 66 18.9 37 37 undefined N/A 29.96 1014 10 16 0.00 0.00
3:53 pm 15:53 Mostly Sunny 97 36.1 64 17.8 34 34 Calm 29.94 1014 10 16 0.00 0.00
4:53 pm 16:53 Mostly Cloudy 97 36.1 64 17.8 34 34 VRB 6 9 29.93 1013 10 16 0.00 0.00
5:53 pm 17:53 Sunny 96 35.6 63 17.2 34 34 Calm 29.92 1013 10 16 0.00 0.00
6:53 pm 18:53 Sunny 90 32.2 66 18.9 45 45 Calm 29.93 1014 10 16 0.00 0.00
7:53 pm 19:53 Clear 80 26.7 68 20 67 67 Calm 29.94 1014 10 16 0.00 0.00
8:53 pm 20:53 Clear 77 25 68 20 74 74 Calm 29.95 1014 10 16 0.00 0.00
9:53 pm 21:53 Clear 77 25 67 19.4 71 71 Calm 29.96 1015 10 16 0.00 0.00
10:53 pm 22:53 Clear 76 24.4 67 19.4 74 74 Calm 29.97 1015 10 16 0.00 0.00
11:53 pm 23:53 Clear 75 23.9 67 19.4 76 76 Calm 29.97 1015 10 16 0.00 0.00

Powered by AerisWeather